Location: Newark
(50.1751°N, 5.6239°W)
Time: 21:52:50
(UTC+00:00)

Nauka - Pass Details

Date: 27 September 2021
Orbit: 417 x 423 km, 51.6° (Epoch: 24 October)

Event Time Altitude Azimuth Distance (km) Brightness Sun altitude
Rises 21:20:56 0° 287° (WNW) 2,369 ? -29.6°
Reaches altitude 10° 21:23:07 10° 279° (W) 1,504 ? -29.9°
Enters shadow 21:23:25 12° 277° (W) 1,388 ? -29.9°
